Location: Middle Street
(51.7167°N, 0.0333°E)
Time: 01:22:25
(UTC+00:00)

Meteor 2-10 Rocket - Pass Details

Date: 20 January 2021
Orbit: 733 x 885 km, 81.2° (Epoch: 28 February)

Event Time Altitude Azimuth Distance (km) Brightness Sun altitude
Rises 18:23:58 0° 345° (NNW) 3,432 6.9 -17.5°
Reaches altitude 10° 18:26:28 10° 342° (NNW) 2,471 6.2 -17.9°
Maximum altitude 18:31:59 65° 263° (W) 896 4.0 -18.7°
Drops below altitude 10° 18:37:15 10° 182° (S) 2,351 6.1 -19.5°
Sets 18:39:34 0° 179° (S) 3,253 6.8 -19.9°
